World > North America > United States > Connecticut

Guilford, Connecticut Regional Weather

Lat: 41.28N, Lon: 72.68W
Wx Zone: CTZ010Web Search
Guilford Weather Warning NWS WEATHER ALERT FOR THE GUILFORD, CT AREA - Issued: 1112 PM EDT Mon Oct 26 2020 Guilford Weather Warning  

Helpful Tip: Abbreviated, 7 Day, 14 Day Forecasts. There is a weather forecast for every taste.

Feedback
Guilford Weather Map
UTC Time: 10/27/2020, 06:18
Your Time:

Guilford, CT Regional Weather

Expires:202010270700;;901810
ASUS41 KOKX 270615
RWROKX

Regional Weather Roundup
National Weather Service New York NY
200 AM EDT TUE OCT 27 2020

Note: "FAIR" indicates few or no clouds below 12,000 feet with no
significant weather and/or obstructions to visibility.


CTZ002-004>006-009-010-012-RIZ004-006-007-MAZ004-011-015-270700-
Southern New England

 In CT
  
CITY           SKY/WX    TMP DP  RH WIND       PRES   REMARKS
Bradley Intl   DRZL/FOG  49  47  93 N3        30.08S VSB 1/4          
Hartford       FOG       51  49  92 CALM      30.08S VSB 1            
Danbury        CLOUDY    55  55 100 CALM      30.10R FOG              
Wtrbury/Oxford FOG       52  52 100 CALM      30.09S VSB 1/4          
Norwalk Harbor   N/A     57 N/A N/A W6          N/A                   
Bridgeport     CLOUDY    60  58  92 SW7       30.07F                  
Meriden        CLOUDY    50  49  96 CALM      30.08S FOG              
New Haven      FOG       56  56 100 CALM      30.07F VSB 3/4          
Chester        FOG       57  57 100 SW5       30.07F VSB<1/4          
Groton         FOG       56  55  97 CALM      30.07R VSB 1            
Willimantic    FOG       53  52  96 CALM      30.07S VSB 1/2          

 In RI
  
CITY           SKY/WX    TMP DP  RH WIND       PRES   REMARKS
Providence     FOG       54  54 100 CALM      30.07R VSB 3/4          
Block Island   CLOUDY    59  57  94 SW8       30.07  FOG              
Westerly       FOG       55  53  93 CALM      30.08R VSB 1/2          
 
In MA
  
CITY           SKY/WX    TMP DP  RH WIND       PRES   REMARKS
Boston         CLOUDY    51  49  92 NW7       30.06S FOG              
Worcester      CLOUDY    50  48  93 W9        30.06R FOG              
Westfield      CLOUDY    48  48 100 CALM      30.08S                  
Provincetown   FOG       56  56 100 SW6       30.05F VSB 3/4          
Nantucket      FOG      N/A N/A N/A S3        30.05R VSB 1/4          
$$


SKY/WX - Weather  TMP - Temperature  DP - Dew Point  RH - Relative Humidity
WIND - Wind Direction/Speed PRES - Barometric Pressure VSB - Visibility
WCI - Wind Chill Index E13G22 Wind - East Wind 13 mph/Gusts of 22 mph